Regional Weather Roundup
Issued by NWS

Home | Current Version | Previous Version | Graphics & Text | Print | Product List | Glossary Off
Versions: 1 2 3 4 5 6 7 8 9 10 11 12 13 14 15 16 17 18 19 20 21 22 23 24 25 26 27 28 29 30 31 32 33 34 35 36 37 38 39 40 41 42 43 44 45 46 47 48 49 50

000
ASUS43 KLSX 232359
RWRMO

WEATHER SUMMARY FOR MISSOURI
NATIONAL WEATHER SERVICE SPRINGFIELD MO
700 PM CDT THU OCT 23 2014

NOTE: "FAIR" INDICATES FEW OR NO CLOUDS BELOW 12,000 FEET WITH NO
       SIGNIFICANT WEATHER AND/OR OBSTRUCTIONS TO VISIBILITY.
       CURRENT SKY AND/OR WEATHER CONDITIONS ARE NOT AVAILABLE FOR
       CHILLICOTHE AND FARMINGTON.

MOZ001>031-035>038-043-044-053-054-240100-
...NORTHERN AND WESTERN MISSOURI...

CITY           SKY/WX    TMP DP  RH WIND       PRES   REMARKS
KANSAS CTY INT PTCLDY    57  56  96 S8        30.06R FOG
6HR MIN TEMP:  57; 6HR MAX TEMP:  65; 6HR PCP: TRACE;

KANSAS C DTWN  CLOUDY    64  59  83 S3        30.06R
6HR MIN TEMP:  64; 6HR MAX TEMP:  67;

LEE`S SUMMIT   PTCLDY    62  58  86 S6        30.07R
6HR MIN TEMP:  62; 6HR MAX TEMP:  65;

ST JOSEPH      CLEAR     63  60  90 S7        30.04R
6HR MIN TEMP:  63; 6HR MAX TEMP:  73;

KIRKSVILLE     CLEAR     60  58  92 SW3       30.06R
6HR MIN TEMP:  59; 6HR MAX TEMP:  67;


$$
MOZ066>068-077>081-088>096-101>105-240100-
...SOUTHWEST MISSOURI...

CITY           SKY/WX    TMP DP  RH WIND       PRES   REMARKS
SPRINGFIELD    CLOUDY    59  55  87 S3        30.10S
6HR MIN TEMP:  58; 6HR MAX TEMP:  62; 6HR PCP:  0.01;

JOPLIN         CLOUDY    60  57  89 S5        30.11R
6HR MIN TEMP:  58; 6HR MAX TEMP:  63;


$$
MOZ032>034-039>042-045>050-055>058-069>072-240100-
...CENTRAL MISSOURI...

CITY           SKY/WX    TMP DP  RH WIND       PRES   REMARKS
COLUMBIA       PTCLDY    56  51  84 S6        30.08S
6HR MIN TEMP:  56; 6HR MAX TEMP:  64; 6HR PCP: TRACE;

JEFFERSON CITY CLOUDY    62  52  69 SE5       30.09R
6HR MIN TEMP:  59; 6HR MAX TEMP:  65;

ROLLA          MOCLDY    56  48  74 S6        30.09S
6HR MIN TEMP:  54; 6HR MAX TEMP:  62;

SEDALIA        MOCLDY    63  57  81 SW6       30.09R
6HR MIN TEMP:  63; 6HR MAX TEMP:  68;

OSAGE BEACH    CLOUDY    61  50  67 CALM      30.10S

$$
MOZ051-052-059>065-240100-
...EAST CENTRAL MISSOURI...

CITY           SKY/WX    TMP DP  RH WIND       PRES   REMARKS
ST LOUIS INTL  CLOUDY    63  45  51 S7        30.10S
6HR MIN TEMP:  61; 6HR MAX TEMP:  65;

SPIRIT OF STL  CLOUDY    62  48  60 CALM      30.09R
6HR MIN TEMP:  62; 6HR MAX TEMP:  65;

ST CHARLES     CLOUDY    59  48  67 SE3       30.09R
6HR MIN TEMP:  59; 6HR MAX TEMP:  64;


$$
MOZ072>076-082>087-097>100-106>115-240100-
...SOUTH CENTRAL AND SOUTHEAST MISSOURI...

CITY           SKY/WX    TMP DP  RH WIND       PRES   REMARKS
CAPE GIRARDEAU MOCLDY    50  45  83 S5        30.15S
6HR MIN TEMP:  50; 6HR MAX TEMP:  59;

FARMINGTON     CLOUDY    57  45  62 SE3       30.14S
6HR MIN TEMP:  57; 6HR MAX TEMP:  61;

POPLAR BLUFF   CLOUDY    54  45  71 SW3       30.14R
6HR MIN TEMP:  54; 6HR MAX TEMP:  59;

WEST PLAINS    CLOUDY    56  47  71 CALM      30.13F
6HR MIN TEMP:  55; 6HR MAX TEMP:  58; 6HR PCP: TRACE;


$$



USA.gov is the U.S. government's official web portal to all federal, state and local government web resources and services.